Tracking 20719 objects as of 24-May-2020
HD Live streaming from Space Station
objects crossing your sky now

TANSEI 3 DEB

Track TANSEI 3 DEB now!
10-day predictions


NORAD ID: 13133
Int'l Code: 1977-012J
Perigee: 801.7 km
Apogee: 3,663.7 km
Inclination: 65.8 °
Period: 132.4 minutes
Semi major axis: 8603 km
RCS: 0.0169 m2 (small)
Launch date: February 19, 1977
Source: Japan (JPN)
Launch site: KAGOSHIMA SPACE CENTER UNIVERSITY OF TOKYO (KSCUT)

Note: This is SATELLITE DEBRIS
aabbcc
Your satellite tracking list
Your tracking list is empty




NASA's NSSDC Master Catalog

Two Line Element Set (TLE):
1 13133U 77012J   20137.36472074 +.00000216 +00000-0 +69116-3 0  9999
2 13133 065.8374 271.3684 1663221 301.6460 043.2625 10.87868532702669
Source of the keplerian elements: AFSPC